Find Think Orbital F2

NORAD ID: 62380 Int'l Des: NNA 2024-247 Owner: THINK Country: US operational
LEOCIRCULAR

实时位置

正在加载3D地球...

关于 Think Orbital F2

正在加载描述...

即将过境

Passes for default location (London). Set your location on the main map for personalized predictions.

高度历史

Loading altitude history...

两行轨道根数

1 62380U 24247D 26135.25965230 .00005657 00000-0 19919-3 0 9992
2 62380 44.9945 110.1018 0002867 49.9727 310.1408 15.30340353 77951
Epoch: May 15, 2026 • Age: 23 hours

当前状态

高度 474.6 km
速度 7.63 km/s
星下点 -4.63°S, 140.62°E
发射日期 Dec 21, 2024
运行时间 1.3 years
类型 other

技术详情

分类 Payload
质量 20.00 kg
干质量 20.00 kg
总质量 20.00 kg
长度 0.30 m
直径 0.20 m
跨度 2.00 m
形状 Box+2 pan
制造商 THINK
平台类型 Cubesat 12U
阶段状态 In Orbit
所有者/国家 THINK/US

Most Searched